User: anonymous   Login
Location: Unspecified
(0.0000°N, 0.0000°E)
Time: 19:19:00
(UTC+00:00)
Language:

STARLINK-5310 - Orbit

View from above orbital plane
View from above orbital plane
View from above satellite
View from above satellite

Ground track
Ground track

The orbit is defined by the following mean orbital elements,

1 55272U          26145.38280110 +.00000000 +00000-0 -14145-3 0 00004
2 55272  69.9993 211.0933 0003606 270.3632  89.7114 14.98329358    07
Epoch (UTC): 25 May 2026 09:11:14
Eccentricity: 0.0003606
inclination: 69.9993°
perigee height: 570 km
apogee height: 575 km
right ascension of ascending node: 211.0933°
argument of perigee: 270.3632°
revolutions per day: 14.98329358
mean anomaly at epoch: 89.7114°

The dashed part of the orbit path shows where the satellite is in the earth's shadow,  

DLR